Showing default

ALSAT 1N, 41789

Orbit data source: Space-Track

ALSAT 1N, 41789 is an Algerian payload satellite in SSO that was launched on Mon, 26 Sep 2016 UTC via a PSLV launch vehicle from the Sirharikota (SRI). Payload-class satellites include a variety of spacecraft equipped with specific instruments for various scientific and technological missions. These include communications satellites like Starlink; space stations such as the ISS; scientific satellites like the Hubble; Earth observation satellites from companies like Planet Labs, Umbra, and HawkEye 360; GPS; miniature CubeSats for education and research; and military/defense satellites.

Loading next visibility...
Identifier
41789, 2016-059G
Orbit
SSO
Country
Flag of DZDZ / ALG
Related business
Manufacturer
ASAL/SSC
Mission
Non-operational Civil Technology
Bus & Motor
CUBESAT 3U, Unknown motor
Mass
7 kg wet, 7 kg dry
Launch date (UTC)
2016-09-26 (9 years ago)
Launch vehicle
PSLV
Launch site
Sirharikota (SRI)
Object type
Payload
Rocket body
Debris
Shape & HBR
Box, 0.1 m
Radar Cross Section
0.035 m², Small (<0.1 m²)

Expand to show TLE details & history
Last TLE update: 8 hours ago

TLE from 8 hours ago
0 ALSAT 1N
1 41789U 16059G   26037.21563368  .00001733  00000-0  30210-3 0  9995
2 41789  97.8022  46.4149 0024642 245.9760 113.8867 14.69041343500776
Epoch: 2026-02-06T05:10Z
TLE epoch observation values (Epoch: 2026-02-06T05:10:30.749Z)
Latitude
-0.00004°
Longitude
-167.56992°
Altitude
674.204 km
Speed
7.516 km/s
True Right ascension
03h 05m 39s
True Declination
0° 00' 00"
Sunlit
Object was in daylight at epoch
Visualization orbit readout
Latitude
Unknown
Longitude
Unknown
Altitude
Unknown
Speed
Unknown
Apparent Right ascension
Unknown
Apparent Declination
Unknown
Sunlit
N/A
Visualization observer readout
Local Sidereal Time
15:36:40
Azimuth
Unknown
Elevation
Unknown
Doppler factor
Unknown
Orbital elements
Apogee altitude
678.528 km
Perigee altitude
643.835 km
Semi-major axis
7,039.318 km
Eccentricity
0.00246
Inclination
97.8022°
RAAN
46.4149°
Arg. of periapsis
245.976°
True anomaly
114.14457°
Mean anomaly
113.8867°
Eccentric anomaly
114.01567°
Mean motion
3.67491 °/min
Orbital period
97.96 mins
BSTAR
0.0003021
Loading maneuver chart data...
Computing Atmospheric mass density...
Loading historical data...
Loading historical data...
Loading historical data...
Loading historical data...
Loading historical data...
Loading historical data...
Loading historical data...

Documentation

Showing up to 5 results
|